Tracking 17265 objects as of 4-September-2015
HD Live streaming from Space Station

Track Soyuz TMA-18M
and Space Station

MINOTAUR R/B

Track MINOTAUR R/B now!
10-day predictions
MINOTAUR R/B is classified as:


NORAD ID: 26066
Int'l Code: 2000-004F
Perigee: 750.4 km
Apogee: 797.5 km
Inclination: 100.2 °
Period: 100.2 minutes
Semi major axis: 7144 km
RCS: 1.5369 m2 (large)
Launch date: January 27, 2000
Source: United States (US)

Note: This is a ROCKET BODY
Your satellite tracking list
Your tracking list is empty





NASA's NSSDC Master Catalog

Two Line Element Set (TLE):
1 26066U 00004F   15245.65646175 +.00000017 +00000-0 +25439-4 0  9996
2 26066 100.2002 129.7734 0032971 331.5860 081.1753 14.37475150817961

Source of the keplerian elements: AFSPC

N2YO: 310